THORAD AGENA D DEB, 4650

Orbit data source: Space-Track

THORAD AGENA D DEB, 4650 is space debris in SSO originally from a launch on Wed, 08 Apr 1970 UTC launched from the Air Force Western Test Range (AFWTR). Debris objects in space refer to the collection of defunct objects orbiting the Earth. Examples of debris include non-operational satellites, rocket bodies, and fragments generated from explosions, collisions, or faulty payload assembly.

Loading next visibility...
Identifier
4650, 1970-025AJ
Orbit
SSO
Last TLE update
10 hours ago
Origin
Manufacturer
Unknown
Mission
Spacecraft
Bus & Motor
Unknown
Mass
Unknown
Launch date (UTC)
1970-04-08 (55 years ago)
Launch vehicle
Unknown
Launch site
Air Force Western Test Range (AFWTR)
Object type
Payload
Rocket body
Debris
Shape & HBR
Unknown
Radar Cross Section
Small (<0.1 m²)

Expand to show TLE details & history

TLE from 10 hours ago
0 THORAD AGENA D DEB
1 04650U 70025AJ  25181.81982167  .00000584  00000-0  33875-3 0  9994
2 04650  99.8305 271.5856 0113723 335.5627  24.0174 14.10154025808156
Epoch: 2025-06-30T19:40Z
TLE epoch observation values (Epoch: 2025-06-30T19:40:32.592Z)
Latitude
-0.00002°
Longitude
57.32565°
Altitude
786.676 km
Speed
7.499 km/s
True Right ascension
18h 06m 20s
True Declination
0° 00' 00"
Sunlit
Object was in full shadow at epoch
Visualization orbit readout
Latitude
-73.03355°
Longitude
92.17323°
Altitude
832.611 km
Speed
7.463 km/s
Apparent Right ascension
03h 32m 36s
Apparent Declination
-70° 35' 44"
Sunlit
Object is in full shadow
Visualization observer readout
Local Sidereal Time
17:10:03
Azimuth
165.482° S
Elevation
-56.861°
Doppler factor
1
Orbital elements
Apogee altitude
938.342 km
Perigee altitude
773.803 km
Semi-major axis
7,234.21 km
Eccentricity
0.01137
Inclination
99.8305°
RAAN
271.5856°
Arg. of periapsis
335.5627°
True anomaly
Unknown
Mean anomaly
24.0174°
Eccentric anomaly
Unknown
Mean motion
3.52741 °/min
Orbital period
102.06 mins
BSTAR
0.00033875
Loading maneuver chart data...
Loading SW <> Apogee altitude chart data...

THORAD AGENA D DEB Visibility forecast

Observer location: undefined°, undefined°

Span
Click to sort rows by Start time (UTC) header in descending order
Start Az.
Max El. time (UTC)
Max El. Az.
Max El.
End time (UTC)
End Az.
9 mins2025-07-01 06:00:25.034Z169.752° S2025-07-01 06:04:25.034Z212.636° SW43.805°2025-07-01 06:09:25.034Z341.451° N
10 mins2025-07-01 18:24:25.034Z32.669° NE2025-07-01 18:28:25.034Z88.84° E35.625°2025-07-01 18:34:25.034Z173.097° S
7 mins2025-07-01 20:06:25.034Z336.444° NNW2025-07-01 20:09:25.034Z293.255° NW24.7°2025-07-01 20:13:25.034Z245.217° WSW
|